Location: Erp
(42.9417°N, 1.2009°E)
Time: 10:00:35
(UTC+00:00)

Cosmos 1833 Rocket - Pass Details

Date: 12 January 2026
Orbit: 832 x 838 km, 71.0° (Epoch: 18 February)

Event Time Altitude Azimuth Distance (km) Brightness Sun altitude
Rises 19:00:41 0° 178° (S) 3,372 5.9 -24.7°
Reaches altitude 10° 19:03:17 10° 170° (S) 2,443 5.1 -25.2°
Enters shadow 19:04:56 19° 160° (SSE) 1,906 4.4 -25.5°
